Lafayette, LA

11:48 PM CDT on September 21, 2017 (GMT -0500)
Lafayette Regional

Weather History for KLFT - November, 2014

Change the Weather History Date:

Thursday, November 27, 2014

  Actual Average Record
Temperature  
Mean Temperature 51 °F 58 °F  
Max Temperature 62 °F 69 °F 83 °F (1989)
Min Temperature 40 °F 48 °F 25 °F (1903)
Degree Days  
Heating Degree Days 14 8  
Month to date heating degree days 281 138  
Since 1 July heating degree days 286 174  
Growing Degree Days 2 (Base 50)    
Moisture  
Dew Point 35 °F    
Average Humidity 59    
Maximum Humidity 86    
Minimum Humidity 32    
Precipitation  
Precipitation 0.00 in 0.15 in 3.88 in (2003)
Month to date precipitation 2.65 3.89  
Year to date precipitation 56.50 54.46  
Snow  
Snow 0.00 in 0.00 in 0.00 in ()
Month to date snowfall 0.0 0.0  
Since 1 July snowfall 0.0 0.0  
Since 1 September snowfall 0.0 0.0  
Snow Depth 0.00 in    
Sea Level Pressure  
Sea Level Pressure 30.42 in    
Wind  
Wind Speed 9 mph (North)    
Max Wind Speed 18 mph    
Max Gust Speed 26 mph    
Visibility 10 miles    
Events      
T = Trace of Precipitation, MM = Missing Value Source: NWS Daily Summary

Daily Weather History Graph

Daily Weather History Graph

Search for Another Location

Airport or City:

Trip Planner

Search our weather history database for the weather conditions in past years. The results will help you decide how hot, cold, wet, or windy it might be!

Date:

Astronomy

Nov. 27, 2014 Rise Set
Actual Time 6:43 AM CST 5:07 PM CST
Civil Twilight 6:17 AM CST 5:33 PM CST
Nautical Twilight 5:48 AM CST 6:03 PM CST
Astronomical Twilight 5:19 AM CST 6:31 PM CST
Moon 11:08 AM CST (11/27) 10:36 PM CST (11/27)
Length of Visible Light 11h 16m
Length of Day
10h 24m
Waxing Crescent, 31% of the Moon is Illuminated
Nov 27
Waxing Crescent
Nov 29
First Quarter
Dec 6
Full
Dec 14
Last Quarter
Dec 21
New

Hourly Weather History & Observations

Time (CST) Temp. Windchill Dew Point Humidity Pressure Visibility Wind Dir Wind Speed Gust Speed Precip Events Conditions
12:53 AM 52.0 °F - 46.0 °F 80% 30.32 in 10.0 mi WNW 8.1 mph - N/A   Clear
1:53 AM 50.0 °F - 44.1 °F 80% 30.34 in 10.0 mi NW 4.6 mph - N/A   Clear
2:53 AM 46.9 °F - 42.1 °F 83% 30.35 in 10.0 mi North 4.6 mph - N/A   Clear
3:53 AM 46.9 °F - 41.0 °F 80% 30.36 in 10.0 mi NNW 5.8 mph - N/A   Clear
4:53 AM 48.9 °F - 39.0 °F 69% 30.38 in 10.0 mi North 6.9 mph - N/A   Clear
5:53 AM 48.0 °F - 37.0 °F 66% 30.40 in 10.0 mi North 10.4 mph - N/A   Clear
6:53 AM 46.9 °F - 35.1 °F 63% 30.43 in 10.0 mi North 6.9 mph - N/A   Clear
7:53 AM 50.0 °F - 36.0 °F 59% 30.46 in 10.0 mi North 6.9 mph - N/A   Clear
8:53 AM 52.0 °F - 35.1 °F 53% 30.47 in 10.0 mi North 15.0 mph 23.0 mph N/A   Clear
9:53 AM 54.0 °F - 32.0 °F 43% 30.48 in 10.0 mi NNE 17.3 mph 24.2 mph N/A   Clear
10:53 AM 57.0 °F - 32.0 °F 39% 30.47 in 10.0 mi NNE 12.7 mph - N/A   Clear
11:53 AM 57.9 °F - 32.0 °F 37% 30.44 in 10.0 mi NNE 9.2 mph - N/A   Clear
12:53 PM 60.1 °F - 32.0 °F 35% 30.42 in 10.0 mi NE 15.0 mph 19.6 mph N/A   Clear
1:53 PM 61.0 °F - 30.0 °F 31% 30.40 in 10.0 mi North 12.7 mph - N/A   Clear
2:53 PM 60.1 °F - 30.9 °F 33% 30.41 in 10.0 mi North 15.0 mph - N/A   Clear
3:53 PM 59.0 °F - 33.1 °F 38% 30.42 in 10.0 mi NNE 12.7 mph - N/A   Clear
4:53 PM 55.9 °F - 30.0 °F 37% 30.43 in 10.0 mi North 8.1 mph - N/A   Clear
5:53 PM 50.0 °F - 32.0 °F 50% 30.44 in 10.0 mi North 4.6 mph - N/A   Clear
6:53 PM 48.9 °F - 32.0 °F 52% 30.45 in 10.0 mi North 8.1 mph - N/A   Clear
7:53 PM 46.9 °F - 32.0 °F 56% 30.45 in 10.0 mi NNE 4.6 mph - N/A   Clear
8:53 PM 46.0 °F 44.8 °F 33.1 °F 61% 30.46 in 10.0 mi NNE 3.5 mph - N/A   Clear
9:53 PM 44.1 °F 42.5 °F 34.0 °F 68% 30.46 in 10.0 mi NE 3.5 mph - N/A   Clear
10:53 PM 42.1 °F 39.2 °F 34.0 °F 73% 30.45 in 10.0 mi NE 4.6 mph - N/A   Clear
11:53 PM 41.0 °F 39.0 °F 34.0 °F 76% 30.44 in 10.0 mi NNE 3.5 mph - N/A   Clear